TimeICT,TemperatureF,Dew PointF,Humidity,Sea Level PressureIn,VisibilityMPH,Wind Direction,Wind SpeedMPH,Gust SpeedMPH,PrecipitationIn,Events,Conditions,WindDirDegrees,DateUTC
12:00 AM,82.4,75.2,79,29.71,6.2,SW,6.9,-,N/A,,Mostly Cloudy,220,2013-09-23 17:00:00
12:30 AM,82.4,75.2,79,29.68,6.2,SSW,5.8,-,N/A,,Mostly Cloudy,210,2013-09-23 17:30:00
1:00 AM,82,76,78,29.70,6,SW,6.9,,,,Partly Cloudy,230,2013-09-23 18:00:00
1:00 AM,82.4,77.0,84,29.68,6.2,SW,6.9,-,N/A,,Mostly Cloudy,230,2013-09-23 18:00:00
1:30 AM,82.4,77.0,84,29.68,6.2,SW,5.8,-,N/A,,Mostly Cloudy,230,2013-09-23 18:30:00
2:00 AM,80.6,77.0,89,29.65,6.2,SW,3.5,-,N/A,,Mostly Cloudy,230,2013-09-23 19:00:00
2:30 AM,80.6,77.0,89,29.65,6.2,WSW,4.6,-,N/A,,Mostly Cloudy,240,2013-09-23 19:30:00
3:00 AM,80.6,77.0,89,29.65,6.2,SSW,4.6,-,N/A,,Scattered Clouds,210,2013-09-23 20:00:00
3:30 AM,80.6,75.2,84,29.65,6.2,SW,4.6,-,N/A,,Scattered Clouds,230,2013-09-23 20:30:00
4:00 AM,80.6,75.2,84,29.65,6.2,WSW,5.8,-,N/A,,Mostly Cloudy,250,2013-09-23 21:00:00
4:30 AM,80.6,75.2,84,29.65,6.2,SW,3.5,-,N/A,,Mostly Cloudy,220,2013-09-23 21:30:00
5:00 AM,80.6,75.2,84,29.65,6.2,West,5.8,-,N/A,,Mostly Cloudy,260,2013-09-23 22:00:00
5:30 AM,80.6,75.2,84,29.65,6.2,SW,4.6,-,N/A,,Mostly Cloudy,220,2013-09-23 22:30:00
6:00 AM,80.6,75.2,84,29.68,6.2,SSW,3.5,-,N/A,,Mostly Cloudy,210,2013-09-23 23:00:00
6:30 AM,80.6,75.2,84,29.68,6.2,South,3.5,-,N/A,,Mostly Cloudy,180,2013-09-23 23:30:00
7:00 AM,81,74,75,29.70,6,South,3.5,,,,Scattered Clouds,190,2013-09-24 00:00:00
7:00 AM,80.6,75.2,84,29.68,6.2,South,3.5,-,N/A,,Mostly Cloudy,190,2013-09-24 00:00:00
7:30 AM,82.4,75.2,79,29.68,6.2,SSW,5.8,-,N/A,,Mostly Cloudy,200,2013-09-24 00:30:00
8:00 AM,84.2,75.2,74,29.71,6.2,SSW,5.8,-,N/A,,Mostly Cloudy,210,2013-09-24 01:00:00
8:30 AM,84.2,75.2,74,29.71,6.2,SSW,11.5,-,N/A,,Mostly Cloudy,210,2013-09-24 01:30:00
9:00 AM,86.0,75.2,70,29.74,6.2,WSW,9.2,-,N/A,,Mostly Cloudy,240,2013-09-24 02:00:00
9:30 AM,87.8,75.2,66,29.74,6.2,WSW,6.9,-,N/A,,Mostly Cloudy,240,2013-09-24 02:30:00
10:00 AM,87.8,73.4,62,29.74,6.2,WSW,8.1,-,N/A,,Mostly Cloudy,240,2013-09-24 03:00:00
10:30 AM,87.8,73.4,62,29.74,6.2,West,9.2,-,N/A,,Mostly Cloudy,270,2013-09-24 03:30:00
11:00 AM,89.6,73.4,59,29.74,6.2,WNW,5.8,-,N/A,,Mostly Cloudy,300,2013-09-24 04:00:00
11:30 AM,91.4,73.4,55,29.71,6.2,WNW,6.9,-,N/A,,Mostly Cloudy,300,2013-09-24 04:30:00
12:00 PM,91.4,71.6,52,29.71,6.2,WSW,6.9,-,N/A,,Mostly Cloudy,240,2013-09-24 05:00:00
12:30 PM,91.4,69.8,49,29.68,6.2,WNW,8.1,-,N/A,,Mostly Cloudy,300,2013-09-24 05:30:00
1:00 PM,93,71,40,29.69,6,WNW,6.9,,,,Scattered Clouds,300,2013-09-24 06:00:00
1:00 PM,93.2,71.6,49,29.68,6.2,WNW,6.9,-,N/A,,Mostly Cloudy,300,2013-09-24 06:00:00
1:30 PM,93.2,71.6,49,29.65,6.2,NNW,6.9,-,N/A,,Mostly Cloudy,330,2013-09-24 06:30:00
2:00 PM,93.2,71.6,49,29.65,6.2,NW,11.5,-,N/A,,Mostly Cloudy,310,2013-09-24 07:00:00
2:30 PM,95.0,69.8,44,29.65,6.2,North,6.9,-,N/A,,Mostly Cloudy,360,2013-09-24 07:30:00
3:00 PM,93.2,69.8,46,29.62,6.2,West,5.8,-,N/A,,Mostly Cloudy,270,2013-09-24 08:00:00
3:30 PM,95.0,71.6,47,29.62,6.2,WSW,6.9,-,N/A,,Mostly Cloudy,240,2013-09-24 08:30:00
4:00 PM,95.0,71.6,47,29.62,6.2,WSW,5.8,-,N/A,,Mostly Cloudy,240,2013-09-24 09:00:00
4:30 PM,93.2,75.2,56,29.62,6.2,WSW,4.6,-,N/A,,Mostly Cloudy,240,2013-09-24 09:30:00
5:00 PM,89.6,75.2,62,29.62,6.2,SSW,8.1,-,N/A,,Mostly Cloudy,210,2013-09-24 10:00:00
5:30 PM,86.0,75.2,70,29.65,3.1,WSW,17.3,-,N/A,Rain,Rain,240,2013-09-24 10:30:00
6:00 PM,80.6,78.8,94,29.68,5.6,WSW,8.1,-,N/A,Rain,Light Rain,240,2013-09-24 11:00:00
6:30 PM,80.6,78.8,94,29.68,3.7,West,11.5,-,N/A,Rain,Light Rain,270,2013-09-24 11:30:00
7:00 PM,81,79,91,29.70,6,SSW,10.4,,,Rain,Light Rain,210,2013-09-24 12:00:00
7:00 PM,80.6,78.8,94,29.68,6.2,SSW,10.4,-,N/A,Rain,Light Rain,210,2013-09-24 12:00:00
7:30 PM,80.6,78.8,94,29.68,6.2,SSW,8.1,-,N/A,,Mostly Cloudy,210,2013-09-24 12:30:00
8:00 PM,80.6,77.0,89,29.71,6.2,SSW,4.6,-,N/A,,Mostly Cloudy,210,2013-09-24 13:00:00
8:30 PM,80.6,77.0,89,29.71,6.2,SW,5.8,-,N/A,,Mostly Cloudy,223,2013-09-24 13:30:00
9:00 PM,80.6,77.0,89,29.71,6.2,SSW,4.6,-,N/A,,Mostly Cloudy,200,2013-09-24 14:00:00
9:30 PM,80.6,77.0,89,29.74,6.2,South,4.6,-,N/A,,Mostly Cloudy,170,2013-09-24 14:30:00
10:00 PM,82.4,78.8,89,29.74,6.2,SSW,6.9,-,N/A,,Mostly Cloudy,210,2013-09-24 15:00:00
10:30 PM,82.4,78.8,89,29.74,6.2,SSW,3.5,-,N/A,,Mostly Cloudy,200,2013-09-24 15:30:00
11:00 PM,82.4,78.8,89,29.74,6.2,SSW,3.5,-,N/A,,Mostly Cloudy,210,2013-09-24 16:00:00
11:30 PM,82.4,78.8,89,29.74,6.2,SW,4.6,-,N/A,,Mostly Cloudy,230,2013-09-24 16:30:00